FW6908 Weather Reports


time (UTC)temp
C
wind
direction
speed
KPH
gust
KPH
rain 1hr
cm
rain 24hr
cm
rain mn
cm
humidity
%
barometer
mb
20260902005021 27 304 0.0 0.0 0.00 0.00 0.00 51 1015.7
20260902004521 27 305 0.0 0.0 0.00 0.00 0.00 51 1015.7
20260902004020 26 325 0.0 0.0 0.00 0.00 0.00 53 1015.8
20260902003520 26 329 0.0 4.8 0.00 0.00 0.00 53 1015.7
20260902003019 26 331 1.6 4.8 0.00 0.00 0.00 53 1015.7
20260902002520 26 351 1.6 4.8 0.00 0.00 0.00 53 1015.7
20260902002019 26 5 0.0 1.6 0.00 0.00 0.00 53 1015.7
20260902001523 26 5 0.0 4.8 0.00 0.00 0.00 53 1015.7
20260902001017 27 9 1.6 6.4 0.00 0.00 0.00 52 1015.7
20260902000517 27 9 3.2 9.7 0.00 0.00 0.00 51 1015.7
20260902000021 27 113 1.6 11.3 0.00 0.00 0.00 49 1015.7
20260901235515 27 101 6.4 11.3 0.00 0.00 0.00 49 1015.7
20260901235016 27 101 4.8 11.3 0.00 0.00 0.00 49 1015.7
20260901234515 27 112 6.4 11.3 0.00 0.00 0.00 50 1015.7
20260901234015 27 108 4.8 12.9 0.00 0.00 0.00 50 1015.7
20260901233514 28 93 8.0 12.9 0.00 0.00 0.00 50 1015.7
20260901233014 28 64 6.4 12.9 0.00 0.00 0.00 50 1015.7
20260901232513 28 98 6.4 12.9 0.00 0.00 0.00 50 1015.8
20260901232013 28 103 8.0 14.5 0.00 0.00 0.00 50 1015.8
20260901231514 28 98 6.4 16.1 0.00 0.00 0.00 50 1015.8
20260901231012 28 107 9.7 16.1 0.00 0.00 0.00 50 1015.8
20260901230512 28 86 6.4 16.1 0.00 0.00 0.00 50 1015.9
20260901230013 28 90 9.7 16.1 0.00 0.00 0.00 50 1015.8
20260901225511 28 100 11.3 19.3 0.00 0.00 0.00 50 1015.9
20260901225011 28 95 11.3 22.5 0.00 0.00 0.00 50 1015.9
20260901224511 28 98 12.9 20.9 0.00 0.00 0.00 51 1015.9
20260901224011 28 82 9.7 20.9 0.00 0.00 0.00 51 1015.8
20260901223510 28 98 11.3 19.3 0.00 0.00 0.00 51 1015.9
20260901223010 28 61 9.7 17.7 0.00 0.00 0.00 52 1015.9
20260901222509 28 90 9.7 17.7 0.00 0.00 0.00 52 1015.9
20260901222009 28 38 6.4 17.7 0.00 0.00 0.00 52 1016.0
20260901221508 28 13 6.4 19.3 0.00 0.00 0.00 52 1016.1
20260901221008 28 64 8.0 22.5 0.00 0.00 0.00 51 1016.1
20260901220508 28 98 6.4 22.5 0.00 0.00 0.00 51 1016.0
20260901220012 28 62 6.4 20.9 0.00 0.00 0.00 51 1016.0
20260901215507 28 90 8.0 20.9 0.00 0.00 0.00 51 1016.0
20260901215006 28 59 8.0 19.3 0.00 0.00 0.00 51 1016.0
20260901214507 28 57 8.0 17.7 0.00 0.00 0.00 51 1016.1
20260901214006 28 45 6.4 17.7 0.00 0.00 0.00 51 1016.0
20260901213504 27 76 11.3 16.1 0.00 0.00 0.00 52 1015.9
20260901213003 27 42 6.4 14.5 0.00 0.00 0.00 52 1016.0
20260901212502 27 25 3.2 12.9 0.00 0.00 0.00 53 1016.0
20260901212001 27 74 3.2 9.7 0.00 0.00 0.00 53 1016.0
20260901211600 27 80 4.8 8.0 0.00 0.00 0.00 54 1016.0
20260901211059 27 5 4.8 8.0 0.00 0.00 0.00 54 1016.0
20260901210559 27 13 1.6 6.4 0.00 0.00 0.00 54 1016.0
20260901210058 27 13 3.2 8.0 0.00 0.00 0.00 54 1016.0
20260901205558 27 15 3.2 8.0 0.00 0.00 0.00 53 1016.0
20260901205101 27 35 4.8 9.7 0.00 0.00 0.00 53 1016.1
20260901204558 27 11 3.2 9.7 0.00 0.00 0.00 53 1016.1
20260901204059 27 57 1.6 9.7 0.00 0.00 0.00 53 1016.0
20260901203558 27 55 4.8 9.7 0.00 0.00 0.00 53 1016.0
20260901203056 27 34 6.4 12.9 0.00 0.00 0.00 52 1016.0
20260901202556 27 24 6.4 12.9 0.00 0.00 0.00 52 1016.0
20260901202056 27 5 4.8 9.7 0.00 0.00 0.00 52 1016.1
20260901201601 27 42 4.8 14.5 0.00 0.00 0.00 51 1016.0
20260901201056 27 53 8.0 14.5 0.00 0.00 0.00 52 1016.0
20260901200555 27 26 8.0 14.5 0.00 0.00 0.00 51 1016.1
20260901200055 27 27 8.0 16.1 0.00 0.00 0.00 51 1016.1
20260901195556 28 32 9.7 16.1 0.00 0.00 0.00 51 1016.1
20260901195057 28 14 9.7 16.1 0.00 0.00 0.00 50 1016.2
20260901194602 28 20 6.4 12.9 0.00 0.00 0.00 50 1016.2
20260901194054 28 5 4.8 8.0 0.00 0.00 0.00 50 1016.1
20260901193554 28 31 4.8 19.3 0.00 0.00 0.00 49 1016.2
20260901193104 28 81 6.4 19.3 0.00 0.00 0.00 49 1016.1
20260901192553 28 54 8.0 16.1 0.00 0.00 0.00 49 1016.2
20260901192054 28 13 8.0 19.3 0.00 0.00 0.00 49 1016.2
20260901191554 28 69 9.7 19.3 0.00 0.00 0.00 49 1016.2
20260901191055 28 59 8.0 19.3 0.00 0.00 0.00 49 1016.1
20260901190552 28 76 8.0 19.3 0.00 0.00 0.00 49 1016.1
20260901190052 28 46 8.0 17.7 0.00 0.00 0.00 49 1016.1
20260901185551 28 35 8.0 17.7 0.00 0.00 0.00 49 1016.0
20260901185051 28 55 9.7 19.3 0.00 0.00 0.00 49 1016.0
20260901184557 28 51 11.3 19.3 0.00 0.00 0.00 49 1015.9
20260901184053 28 37 6.4 17.7 0.00 0.00 0.00 49 1015.9
20260901183550 28 52 8.0 16.1 0.00 0.00 0.00 49 1015.9
20260901183050 28 46 8.0 16.1 0.00 0.00 0.00 48 1015.7
20260901182550 28 10 6.4 19.3 0.00 0.00 0.00 48 1015.7
20260901182050 28 65 9.7 19.3 0.00 0.00 0.00 48 1015.6
20260901181550 28 38 6.4 17.7 0.00 0.00 0.00 47 1015.6
20260901181049 29 39 9.7 17.7 0.00 0.00 0.00 47 1015.6
20260901180549 29 45 8.0 17.7 0.00 0.00 0.00 47 1015.6
20260901180049 29 42 9.7 16.1 0.00 0.00 0.00 47 1015.5
20260901175550 29 44 6.4 16.1 0.00 0.00 0.00 46 1015.4
20260901175049 30 53 6.4 19.3 0.00 0.00 0.00 46 1015.3
20260901174549 30 65 6.4 22.5 0.00 0.00 0.00 46 1015.3
20260901174049 30 41 11.3 22.5 0.00 0.00 0.00 45 1015.3
20260901173548 30 81 11.3 19.3 0.00 0.00 0.00 45 1015.2
20260901173048 30 118 8.0 20.9 0.00 0.00 0.00 45 1015.2
20260901172548 30 87 12.9 22.5 0.00 0.00 0.00 44 1015.1
20260901172048 30 106 11.3 22.5 0.00 0.00 0.00 44 1015.0
20260901171551 30 97 11.3 22.5 0.00 0.00 0.00 44 1015.2
20260901171047 30 88 9.7 17.7 0.00 0.00 0.00 44 1015.1
20260901170547 30 71 11.3 20.9 0.00 0.00 0.00 44 1015.1
20260901170148 30 60 12.9 20.9 0.00 0.00 0.00 44 1015.1
20260901165546 30 78 14.5 20.9 0.00 0.00 0.00 44 1015.0
20260901165046 30 97 8.0 20.9 0.00 0.00 0.00 44 1015.1
20260901164548 31 103 11.3 17.7 0.00 0.00 0.00 43 1015.1
20260901164045 31 96 8.0 19.3 0.00 0.00 0.00 43 1015.0
20260901163545 31 111 11.3 19.3 0.00 0.00 0.00 42 1014.9
20260901163045 31 104 6.4 19.3 0.00 0.00 0.00 42 1014.9
20260901162544 31 83 9.7 17.7 0.00 0.00 0.00 41 1014.8
20260901162044 31 126 8.0 17.7 0.00 0.00 0.00 41 1014.8
20260901161546 31 109 6.4 20.9 0.00 0.00 0.00 40 1014.8
20260901161046 32 94 8.0 20.9 0.00 0.00 0.00 39 1014.7
20260901160545 32 102 4.8 24.1 0.00 0.00 0.00 39 1014.7
20260901160050 32 88 11.3 24.1 0.00 0.00 0.00 37 1014.6
20260901155543 32 86 6.4 24.1 0.00 0.00 0.00 37 1014.6
20260901155043 32 68 11.3 25.7 0.00 0.00 0.00 36 1014.6
20260901154542 32 90 14.5 25.7 0.00 0.00 0.00 36 1014.6
20260901154039 33 100 9.7 25.7 0.00 0.00 0.00 36 1014.5
20260901153538 33 38 11.3 27.4 0.00 0.00 0.00 36 1014.5
20260901153038 33 5 9.7 27.4 0.00 0.00 0.00 36 1014.5
20260901152538 33 52 12.9 27.4 0.00 0.00 0.00 36 1014.4
20260901152041 33 83 12.9 29.0 0.00 0.00 0.00 36 1014.4
20260901151537 33 117 14.5 29.0 0.00 0.00 0.00 36 1014.4
20260901151038 33 67 16.1 29.0 0.00 0.00 0.00 36 1014.5
20260901150537 33 69 17.7 30.6 0.00 0.00 0.00 36 1014.5
20260901150054 33 94 19.3 30.6 0.00 0.00 0.00 36 1014.4
20260901145535 33 51 14.5 30.6 0.00 0.00 0.00 36 1014.4
20260901145035 33 109 22.5 30.6 0.00 0.00 0.00 36 1014.3
20260901144534 33 45 17.7 27.4 0.00 0.00 0.00 36 1014.3
20260901144034 33 74 16.1 29.0 0.00 0.00 0.00 36 1014.5
20260901143530 33 56 19.3 29.0 0.00 0.00 0.00 37 1014.6
20260901143030 33 80 19.3 29.0 0.00 0.00 0.00 36 1014.5
20260901142530 33 112 17.7 32.2 0.00 0.00 0.00 36 1014.4
20260901142029 33 74 19.3 32.2 0.00 0.00 0.00 36 1014.4
20260901141528 33 82 19.3 32.2 0.00 0.00 0.00 36 1014.4
20260901141027 33 82 20.9 32.2 0.00 0.00 0.00 36 1014.5
20260901140526 33 65 17.7 32.2 0.00 0.00 0.00 36 1014.5
20260901140026 33 113 14.5 32.2 0.00 0.00 0.00 36 1014.6
20260901135526 33 82 16.1 32.2 0.00 0.00 0.00 36 1014.7
20260901135029 33 76 20.9 35.4 0.00 0.00 0.00 35 1014.7
20260901134530 33 83 16.1 35.4 0.00 0.00 0.00 36 1014.6
20260901134025 33 98 24.1 32.2 0.00 0.00 0.00 36 1014.7
20260901133525 33 105 17.7 33.8 0.00 0.00 0.00 36 1014.6
20260901133021 33 61 22.5 33.8 0.00 0.00 0.00 36 1014.6
20260901132520 33 84 17.7 35.4 0.00 0.00 0.00 35 1014.7
20260901132021 33 90 20.9 35.4 0.00 0.00 0.00 35 1014.5
20260901131522 33 55 16.1 32.2 0.00 0.00 0.00 35 1014.6
20260901131016 34 89 19.3 37.0 0.00 0.00 0.00 35 1014.6
20260901130515 33 79 22.5 37.0 0.00 0.00 0.00 35 1014.6
20260901130014 33 106 17.7 35.4 0.00 0.00 0.00 35 1014.6
20260901125512 33 120 14.5 29.0 0.00 0.00 0.00 35 1014.6
20260901125011 33 78 16.1 32.2 0.00 0.00 0.00 35 1014.7
20260901124510 33 99 20.9 32.2 0.00 0.00 0.00 35 1014.7
20260901124009 33 128 16.1 30.6 0.00 0.00 0.00 35 1014.8
20260901123511 34 90 17.7 33.8 0.00 0.00 0.00 35 1014.9
20260901123015 33 109 16.1 33.8 0.00 0.00 0.00 34 1014.9
20260901122505 34 105 17.7 29.0 0.00 0.00 0.00 34 1015.1
20260901122003 33 86 14.5 29.0 0.00 0.00 0.00 35 1015.1
20260901121502 34 113 14.5 30.6 0.00 0.00 0.00 35 1015.1
20260901121101 33 71 14.5 33.8 0.00 0.00 0.00 34 1015.3
20260901120604 33 73 20.9 35.4 0.00 0.00 0.00 34 1015.1
20260901120113 33 96 14.5 33.8 0.00 0.00 0.00 34 1015.2
20260901115604 33 119 19.3 33.8 0.00 0.00 0.00 34 1015.3
20260901115100 33 91 17.7 29.0 0.00 0.00 0.00 34 1015.3
20260901114559 34 103 12.9 33.8 0.00 0.00 0.00 33 1015.3
20260901114057 33 48 19.3 33.8 0.00 0.00 0.00 33 1015.2
20260901113555 33 96 12.9 32.2 0.00 0.00 0.00 34 1015.3
20260901113059 33 74 20.9 35.4 0.00 0.00 0.00 34 1015.3
20260901112553 33 107 16.1 40.2 0.00 0.00 0.00 34 1015.2
20260901112051 33 58 20.9 32.2 0.00 0.00 0.00 34 1015.2
20260901111550 33 34 22.5 32.2 0.00 0.00 0.00 34 1015.2
20260901111047 33 70 20.9 37.0 0.00 0.00 0.00 34 1015.3
20260901110548 33 61 22.5 37.0 0.00 0.00 0.00 34 1015.3
20260901110045 33 44 14.5 29.0 0.00 0.00 0.00 34 1015.3
20260901105543 33 60 14.5 32.2 0.00 0.00 0.00 34 1015.3
20260901105045 33 71 19.3 32.2 0.00 0.00 0.00 33 1015.4
20260901104551 33 81 16.1 35.4 0.00 0.00 0.00 33 1015.5
20260901104042 33 60 20.9 35.4 0.00 0.00 0.00 33 1015.4
20260901103540 33 67 16.1 30.6 0.00 0.00 0.00 33 1015.6
20260901103041 33 117 16.1 25.7 0.00 0.00 0.00 34 1015.6
20260901102540 33 55 16.1 32.2 0.00 0.00 0.00 33 1015.7
20260901102041 33 79 16.1 35.4 0.00 0.00 0.00 33 1015.7
20260901101540 33 74 16.1 35.4 0.00 0.00 0.00 34 1015.9
20260901101039 33 80 22.5 35.4 0.00 0.00 0.00 33 1015.8
20260901100539 33 74 9.7 27.4 0.00 0.00 0.00 34 1015.8
20260901100044 33 90 12.9 29.0 0.00 0.00 0.00 34 1015.6
20260901095537 33 112 20.9 29.0 0.00 0.00 0.00 34 1015.6
20260901095037 33 66 12.9 38.6 0.00 0.00 0.00 34 1015.8
20260901094537 32 84 27.4 38.6 0.00 0.00 0.00 33 1015.8
20260901094038 32 135 17.7 30.6 0.00 0.00 0.00 33 1015.8
20260901093535 32 32 12.9 33.8 0.00 0.00 0.00 34 1015.8
20260901093034 32 61 16.1 29.0 0.00 0.00 0.00 35 1015.8
20260901092534 33 91 16.1 32.2 0.00 0.00 0.00 35 1015.7
20260901092034 33 53 14.5 32.2 0.00 0.00 0.00 35 1015.8
20260901091534 33 61 8.0 25.7 0.00 0.00 0.00 36 1015.6
20260901091031 32 68 6.4 27.4 0.00 0.00 0.00 36 1015.7
20260901090531 32 65 11.3 25.7 0.00 0.00 0.00 36 1015.7
20260901090027 32 94 14.5 32.2 0.00 0.00 0.00 37 1015.6
20260901085526 32 86 17.7 37.0 0.00 0.00 0.00 37 1015.6
20260901085025 32 78 20.9 37.0 0.00 0.00 0.00 36 1015.6
20260901084541 32 97 14.5 30.6 0.00 0.00 0.00 37 1015.8
20260901084024 32 59 11.3 32.2 0.00 0.00 0.00 37 1015.8
20260901083521 32 50 17.7 32.2 0.00 0.00 0.00 37 1015.7
20260901083022 32 28 16.1 27.4 0.00 0.00 0.00 37 1015.7
20260901082519 32 95 14.5 30.6 0.00 0.00 0.00 38 1015.6
20260901082017 31 92 12.9 33.8 0.00 0.00 0.00 39 1015.6
20260901081522 31 46 16.1 33.8 0.00 0.00 0.00 39 1015.6
20260901081015 31 117 20.9 33.8 0.00 0.00 0.00 39 1015.7
20260901080514 31 58 17.7 33.8 0.00 0.00 0.00 39 1015.7
20260901080018 31 87 20.9 30.6 0.00 0.00 0.00 39 1015.7
20260901075512 31 80 16.1 27.4 0.00 0.00 0.00 40 1015.6
20260901075011 31 96 11.3 25.7 0.00 0.00 0.00 41 1015.6
20260901074509 30 113 14.5 27.4 0.00 0.00 0.00 42 1015.6
20260901074010 30 90 12.9 27.4 0.00 0.00 0.00 44 1015.6
20260901073506 30 130 9.7 24.1 0.00 0.00 0.00 45 1015.5
20260901073005 30 128 14.5 24.1 0.00 0.00 0.00 45 1015.6
20260901072503 30 107 16.1 27.4 0.00 0.00 0.00 45 1015.4
20260901072001 30 59 17.7 27.4 0.00 0.00 0.00 45 1015.5
20260901071601 30 124 12.9 19.3 0.00 0.00 0.00 45 1015.4
20260901071100 30 149 6.4 19.3 0.00 0.00 0.00 46 1015.5
20260901070557 29 99 11.3 17.7 0.00 0.00 0.00 45 1015.3
20260901070057 29 32 8.0 16.1 0.00 0.00 0.00 46 1015.4
20260901065558 29 76 9.7 19.3 0.00 0.00 0.00 47 1015.4
20260901065053 29 106 11.3 19.3 0.00 0.00 0.00 47 1015.5
20260901064552 29 121 0.0 12.9 0.00 0.00 0.00 48 1015.4
20260901064051 28 60 4.8 12.9 0.00 0.00 0.00 48 1015.5
20260901063548 28 119 4.8 12.9 0.00 0.00 0.00 48 1015.5
20260901063106 28 94 3.2 6.4 0.00 0.00 0.00 49 1015.6
20260901062545 27 285 0.0 4.8 0.00 0.00 0.00 50 1015.7
20260901062044 27 289 0.0 4.8 0.00 0.00 0.00 50 1015.6
20260901061547 27 98 0.0 6.4 0.00 0.00 0.00 50 1015.5
20260901061042 27 78 1.6 6.4 0.00 0.00 0.00 51 1015.7
20260901060542 27 83 1.6 6.4 0.00 0.00 0.00 51 1015.6
20260901060040 27 287 0.0 1.6 0.00 0.00 0.00 52 1015.7
20260901055542 27 290 0.0 1.6 0.00 0.00 0.00 51 1015.7
20260901055039 26 290 0.0 1.6 0.00 0.00 0.00 52 1015.9
20260901054538 26 295 0.0 3.2 0.00 0.00 0.00 52 1015.9
20260901054037 26 294 0.0 4.8 0.00 0.00 0.00 53 1015.9
20260901053535 26 326 1.6 8.0 0.00 0.00 0.00 53 1015.8
20260901053041 26 350 3.2 8.0 0.00 0.00 0.00 54 1015.8
20260901052532 25 360 4.8 8.0 0.00 0.00 0.00 54 1015.8
20260901052031 25 23 1.6 6.4 0.00 0.00 0.00 54 1015.8
20260901051530 25 342 3.2 6.4 0.00 0.00 0.00 55 1015.8
20260901051030 25 360 3.2 9.7 0.00 0.00 0.00 55 1015.8
20260901050529 25 360 6.4 9.7 0.00 0.00 0.00 53 1015.8
20260901050027 25 33 0.0 6.4 0.00 0.00 0.00 54 1015.7
20260901045527 24 18 1.6 6.4 0.00 0.00 0.00 54 1015.7
20260901045024 24 30 1.6 6.4 0.00 0.00 0.00 54 1015.6
20260901044530 24 72 0.0 4.8 0.00 0.00 0.00 55 1015.4
20260901044021 23 57 3.2 4.8 0.00 0.00 0.00 56 1015.5
20260901043519 23 35 3.2 6.4 0.00 0.00 0.00 57 1015.5
20260901043021 23 5 3.2 6.4 0.00 0.00 0.00 57 1015.5
20260901042516 23 344 3.2 6.4 0.00 0.00 0.00 56 1015.4
20260901042019 23 45 0.0 6.4 0.00 0.00 0.00 56 1015.3
20260901041516 23 40 1.6 9.7 0.00 0.00 0.00 56 1015.2
20260901041014 23 51 4.8 9.7 0.00 0.00 0.00 56 1015.2
20260901040513 23 15 6.4 9.7 0.00 0.00 0.00 56 1015.2
20260901040013 23 23 4.8 9.7 0.00 0.00 0.00 55 1015.1
20260901035513 23 15 1.6 8.0 0.00 0.00 0.00 55 1015.1
20260901035012 23 11 3.2 6.4 0.00 0.00 0.00 55 1015.1
20260901034518 23 49 1.6 9.7 0.00 0.00 0.00 55 1015.0
20260901034011 22 22 1.6 9.7 0.00 0.00 0.00 56 1015.0
20260901033511 23 15 6.4 12.9 0.00 0.00 0.00 55 1015.0
20260901033009 23 11 1.6 12.9 0.00 0.00 0.00 55 1014.9
20260901032509 23 30 4.8 12.9 0.00 0.00 0.00 54 1014.9
20260901032008 23 92 0.0 6.4 0.00 0.00 0.00 53 1014.9
20260901031509 23 103 1.6 6.4 0.00 0.00 0.00 53 1014.9
20260901031008 23 74 1.6 6.4 0.00 0.00 0.00 53 1014.9
20260901030507 23 46 1.6 6.4 0.00 0.00 0.00 53 1015.0
20260901030007 23 43 3.2 9.7 0.00 0.00 0.00 53 1015.0
20260901025508 23 15 6.4 9.7 0.00 0.00 0.00 53 1015.1
20260901025007 23 38 4.8 8.0 0.00 0.00 0.00 53 1014.9
20260901024508 24 58 0.0 9.7 0.00 0.00 0.00 52 1014.9
20260901024009 23 43 4.8 9.7 0.00 0.00 0.00 53 1014.8
20260901023505 23 35 1.6 8.0 0.00 0.00 0.00 52 1014.8
20260901023005 24 20 1.6 9.7 0.00 0.00 0.00 52 1014.9
20260901022505 24 59 1.6 9.7 0.00 0.00 0.00 51 1014.8
20260901022005 25 57 0.0 8.0 0.00 0.00 0.00 50 1014.8
20260901021505 24 53 1.6 8.0 0.00 0.00 0.00 50 1014.8
20260901021005 24 97 4.8 8.0 0.00 0.00 0.00 51 1014.8
20260901020505 24 56 1.6 8.0 0.00 0.00 0.00 51 1014.8
20260901020005 24 59 0.0 8.0 0.00 0.00 0.00 52 1014.7
20260901015508 23 33 1.6 9.7 0.00 0.00 0.00 52 1014.8
20260901015005 23 13 6.4 9.7 0.00 0.00 0.00 52 1014.8
20260901014503 23 18 3.2 8.0 0.00 0.00 0.00 52 1014.8
20260901014004 23 17 3.2 6.4 0.00 0.00 0.00 52 1014.9
20260901013501 24 26 3.2 6.4 0.00 0.00 0.00 52 1014.7
20260901013001 23 32 1.6 4.8 0.00 0.00 0.00 52 1014.8
20260901012501 23 50 0.0 8.0 0.00 0.00 0.00 52 1014.9
20260901012101 23 34 1.6 8.0 0.00 0.00 0.00 52 1014.9
20260901011600 24 30 3.2 8.0 0.00 0.00 0.00 51 1014.9
20260901011059 24 61 1.6 6.4 0.00 0.00 0.00 51 1014.9
20260901010559 24 63 1.6 8.0 0.00 0.00 0.00 50 1014.9
20260901010059 24 355 3.2 8.0 0.00 0.00 0.00 51 1014.8
20260901005558 24 5 1.6 12.9 0.00 0.00 0.00 50 1014.9